Blytheville Muni Airport, AR

1:07 AM CDT on September 20, 2017 (GMT -0500)
Blytheville Municipal

Weather History for KHKA - January, 2013

Change the Weather History Date:

Monday, January 21, 2013

  Actual Average Record
Temperature  
Mean Temperature 32 °F -  
Max Temperature 37 °F 44 °F 71 °F (1999)
Min Temperature 25 °F 27 °F -8 °F (1985)
Degree Days  
Heating Degree Days 34    
Moisture  
Dew Point 20 °F    
Average Humidity 65    
Maximum Humidity 85    
Minimum Humidity 44    
Precipitation  
Precipitation 0.00 in - - ()
Sea Level Pressure  
Sea Level Pressure 30.34 in    
Wind  
Wind Speed 9 mph (North)    
Max Wind Speed 15 mph    
Max Gust Speed 21 mph    
Visibility 10 miles    
Events      
Averages and records for this station are not official NWS values.
T = Trace of Precipitation, MM = Missing Value Source: NWS Daily Summary

Daily Weather History Graph

Daily Weather History Graph

Search for Another Location

Airport or City:

Trip Planner

Search our weather history database for the weather conditions in past years. The results will help you decide how hot, cold, wet, or windy it might be!

Date:

Astronomy

Jan. 21, 2013 Rise Set
Actual Time 7:06 AM CST 5:15 PM CST
Civil Twilight 6:39 AM CST 5:42 PM CST
Nautical Twilight 6:07 AM CST 6:13 PM CST
Astronomical Twilight 5:37 AM CST 6:44 PM CST
Moon 12:55 PM CST (1/21) 2:34 AM CST (1/21)
Length of Visible Light 11h 03m
Length of Day
10h 08m
Waxing Gibbous, 75% of the Moon is Illuminated
Jan 21
Waxing Gibbous
Jan 26
Full
Feb 3
Last Quarter
Feb 10
New
Feb 17
First Quarter

Hourly Weather History & Observations

Time (CST) Temp. Windchill Dew Point Humidity Pressure Visibility Wind Dir Wind Speed Gust Speed Precip Events Conditions
12:53 AM 30.0 °F 21.7 °F 26.1 °F 85% 30.24 in 10.0 mi North 9.2 mph - N/A   Clear
1:53 AM 30.0 °F 23.2 °F 25.0 °F 82% 30.26 in 10.0 mi NNE 6.9 mph - N/A   Clear
2:53 AM 28.9 °F 17.7 °F 23.0 °F 78% 30.28 in 10.0 mi North 15.0 mph - N/A   Clear
3:53 AM 30.0 °F 20.5 °F 23.0 °F 75% 30.29 in 10.0 mi NNE 11.5 mph - N/A   Mostly Cloudy
4:53 AM 28.0 °F 17.5 °F 21.9 °F 78% 30.30 in 10.0 mi North 12.7 mph - N/A   Clear
5:53 AM 28.0 °F 18.1 °F 21.0 °F 75% 30.33 in 10.0 mi North 11.5 mph - N/A   Clear
6:53 AM 28.0 °F 18.1 °F 19.9 °F 72% 30.35 in 10.0 mi North 11.5 mph - N/A   Scattered Clouds
7:53 AM 28.9 °F 19.2 °F 21.0 °F 72% 30.37 in 10.0 mi North 11.5 mph - N/A   Clear
8:53 AM 30.9 °F 20.2 °F 19.0 °F 61% 30.39 in 10.0 mi NNE 15.0 mph - N/A   Clear
9:53 AM 33.1 °F 23.4 °F 19.0 °F 56% 30.40 in 10.0 mi NNE 13.8 mph 20.7 mph N/A   Clear
10:53 AM 34.0 °F 27.2 °F 18.0 °F 52% 30.40 in 10.0 mi NNE 8.1 mph - N/A   Clear
11:53 AM 35.1 °F 27.9 °F 18.0 °F 50% 30.36 in 10.0 mi NNE 9.2 mph - N/A   Clear
12:53 PM 37.0 °F 28.5 °F 18.0 °F 46% 30.36 in 10.0 mi North 13.8 mph - N/A   Clear
1:53 PM 37.0 °F 31.0 °F 18.0 °F 46% 30.34 in 10.0 mi NW 8.1 mph - N/A   Clear
2:53 PM 36.0 °F 33.3 °F 16.0 °F 44% 30.35 in 10.0 mi Variable 3.5 mph - N/A   Clear
3:53 PM 37.0 °F 34.5 °F 17.1 °F 44% 30.35 in 10.0 mi Variable 3.5 mph - N/A   Clear
4:53 PM 34.0 °F - 17.1 °F 50% 30.34 in 10.0 mi Calm Calm - N/A   Clear
5:53 PM 33.1 °F 28.7 °F 19.0 °F 56% 30.34 in 10.0 mi SSE 4.6 mph - N/A   Clear
6:53 PM 30.9 °F 26.2 °F 19.0 °F 61% 30.33 in 10.0 mi South 4.6 mph - N/A   Clear
7:53 PM 30.0 °F - 19.9 °F 66% 30.33 in 10.0 mi Calm Calm - N/A   Clear
8:53 PM 28.9 °F 25.2 °F 23.0 °F 78% 30.34 in 10.0 mi West 3.5 mph - N/A   Clear
9:53 PM 27.0 °F 17.3 °F 21.9 °F 81% 30.35 in 10.0 mi North 10.4 mph - N/A   Clear
10:53 PM 26.1 °F 18.4 °F 19.9 °F 78% 30.36 in 10.0 mi NNE 6.9 mph - N/A   Clear
11:53 PM 25.0 °F 18.1 °F 19.0 °F 78% 30.36 in 10.0 mi North 5.8 mph - N/A   Clear